Lid_Strength_Index
8 11 14 12 11 10 11 13 13 11 10 13 13 13 12 11 11 13 13 13 13 10 5 4 3 3 2 2 2 2 2 1 1 1 2 2 2 1 2 1 1 1 1 1
11 13 10 10 10 11 12 13 13 11 11 12 14 13 11 11 10 11 11 12 12 12 9 5 4 3 3 2 2 2 2 2 2 1 1 1 1 2 1 1 1 1 1 2
12 12 10 11 11 12 12 14 13 13 14 15 16 15 15 12 11 11 10 10 10 11 11 7 6 4 3 3 2 2 2 2 2 1 1 2 2 3 3 2 1 1 1 1
11 9 10 11 12 11 15 10 11 13 15 17 15 19 16 13 12 11 10 9 10 10 11 9 6 5 4 3 2 2 1 1 1 1 1 2 2 3 2 2 1 0 1 1
12 11 12 13 12 10 13 10 11 13 15 17 17 20 17 15 13 12 10 10 10 10 10 10 7 5 4 3 3 2 2 1 1 1 1 2 2 1 2 2 2 1 1 1
10 7 9 10 10 9 9 11 13 13 15 19 16 18 18 15 13 13 12 11 10 9 10 10 9 5 4 2 3 2 2 2 1 1 2 2 2 2 2 2 2 1 1 1
12 12 9 8 12 10 11 14 19 20 20 20 16 17 15 13 11 12 12 12 12 11 10 10 11 7 4 4 3 3 3 2 2 2 2 2 2 2 2 2 2 2 2 1
16 17 12 10 11 13 13 14 18 22 22 21 19 19 16 11 8 8 11 13 13 12 11 11 11 10 6 5 3 3 3 2 2 2 2 2 2 2 2 2 1 1 1 1
16 15 10 9 9 9 13 16 12 18 24 22 19 17 14 12 12 12 13 12 13 12 12 12 10 11 10 7 4 3 3 3 3 3 2 2 1 2 2 2 1 1 1 1
12 17 12 11 9 10 11 11 15 16 23 24 21 20 17 14 12 12 13 13 12 12 12 12 12 11 11 10 9 8 5 4 5 4 3 2 2 2 1 3 3 2 2 3
11 14 15 12 13 14 14 13 13 13 17 21 23 20 15 13 12 13 13 12 12 12 12 12 12 12 11 11 11 10 10 10 9 9 7 5 4 4 3 3 3 4 4 2
10 14 16 14 12 10 11 13 12 15 18 19 18 19 13 14 13 12 13 13 13 13 12 12 12 11 11 11 10 10 10 11 10 10 9 7 5 5 5 5 5 4 3 3
10 14 18 17 13 13 13 13 12 13 16 18 20 19 14 14 14 14 13 13 13 13 13 12 11 11 10 10 10 10 10 10 10 9 8 7 6 5 5 6 5 5 3 3
8 14 16 17 15 14 15 13 13 12 18 19 16 17 17 15 15 14 13 13 13 13 12 12 11 11 11 10 10 10 9 9 9 8 8 7 6 6 5 5 5 5 4 4
10 15 14 14 13 13 13 13 12 13 13 16 15 15 15 15 14 14 13 13 13 13 12 12 12 12 11 11 10 9 9 9 9 9 9 8 8 7 7 7 6 5 5 4
9 15 13 15 14 13 15 13 12 12 12 12 14 16 13 14 14 15 14 13 13 13 13 13 12 12 12 11 11 10 9 9 9 9 9 9 9 9 9 9 9 9 9 6
12 13 15 17 16 15 18 14 13 12 12 12 14 12 12 12 13 13 13 13 13 13 12 13 13 12 12 11 10 10 9 9 9 9 9 9 9 10 10 11 11 11 11 10
13 13 14 17 15 20 14 12 12 12 11 11 11 11 10 10 10 12 12 13 13 13 12 12 12 12 12 12 11 10 10 9 10 10 10 11 11 11 11 11 11 11 11 10
9 12 15 18 18 16 14 14 13 14 14 10 11 10 11 11 13 12 12 12 12 12 11 12 12 12 12 12 11 10 11 11 11 12 12 12 12 13 13 14 14 14 13 13
10 10 14 16 19 20 15 13 12 12 16 11 11 11 11 13 15 12 11 11 12 12 12 12 12 13 13 14 12 12 13 13 13 13 13 13 14 12 12 13 13 15 14 14
15 14 16 16 17 17 14 13 10 16 15 12 11 11 11 13 11 10 12 13 13 13 13 14 14 15 16 16 15 14 14 14 15 14 14 15 13 13 12 13 14 14 14 14
15 16 16 15 17 19 12 12 14 12 14 14 13 12 11 11 12 13 13 14 14 15 15 15 17 17 17 17 16 16 16 16 16 15 15 15 15 15 14 14 14 14 14 14
15 13 14 13 14 13 14 12 12 12 12 13 13 13 12 13 14 13 14 15 16 16 16 16 17 18 18 18 17 17 17 16 15 14 14 14 14 14 14 14 14 14 14 13
12 11 13 13 12 13 12 13 13 12 13 12 13 13 13 13 14 15 16 16 17 17 17 17 18 18 19 19 18 18 17 16 14 14 14 15 14 14 14 14 14 14 14 14
12 11 14 14 14 13 13 14 12 12 13 13 13 14 14 14 15 16 17 17 18 18 18 18 19 20 21 21 20 20 18 15 15 15 15 15 14 14 14 15 14 14 14 13
17 15 12 14 16 15 15 15 15 14 14 14 14 14 15 15 16 17 18 18 19 20 20 21 22 23 23 23 23 21 19 16 15 16 15 15 15 15 15 15 15 13 12 12